Regional Weather Roundup
Issued by NWS

Home | Current Version | Previous Version | Text Only | Print | Product List | Glossary Off
Versions: 1 2 3 4 5 6 7 8 9 10 11 12 13 14 15 16 17 18 19 20 21 22 23 24 25 26 27 28 29 30 31 32 33 34 35 36 37 38 39 40 41 42 43 44 45 46 47 48 49 50

000
ASUS43 KMPX 251401
RWRMN
WEATHER ROUNDUP FOR MINNESOTA
NATIONAL WEATHER SERVICE TWIN CITIES/CHANHASSEN MN
900 AM CDT SAT OCT 25 2014


NOTE: "FAIR" INDICATES FEW OR NO CLOUDS BELOW 12,000 FEET WITH NO
SIGNIFICANT WEATHER AND/OR OBSTRUCTIONS TO VISIBILITY. N/A MEANS
CURRENT SKY AND/OR WEATHER CONDITIONS ARE NOT AVAILABLE.

MNZ060>063-068>070-251500-
   Twin Cities Metro

CITY           SKY/WX    TMP DP  RH WIND       PRES   REMARKS
TWIN CITIES    MOSUNNY   53  34  48 NW10      30.03R
ST PAUL        SUNNY     53  34  48 NW14G21   30.03R
CRYSTAL        SUNNY     53  34  48 NW12      30.02R
BLAINE         MOSUNNY   52  36  54 W13       30.02R
LAKEVILLE      PTSUNNY   52  37  58 W8        30.04R
EDEN PRAIRIE   MOSUNNY   53  34  48 W12       30.03R
SOUTH ST PAUL  SUNNY     55  31  39 NW15G23   30.01R
LAKE ELMO      FAIR      52  36  54 NW15      30.02R
$$
MNZ001>005-007-008-013>017-022>024-027-028-251500-
   Northwest Minnesota

CITY           SKY/WX    TMP DP  RH WIND       PRES   REMARKS
BEMIDJI        CLEAR     43  32  65 W9G20     29.98S
HALLOCK        CLEAR     37  30  75 W9        30.01R
ROSEAU         CLEAR     41  34  75 W10G17    29.96R
WARROAD        CLEAR     39  34  81 CALM      29.94R
THIEF RVR FALL CLEAR     39  30  70 W13       30.01S
CROOKSTON      CLEAR     41  34  75 W12       30.05R
FOSSTON        CLEAR     37  34  87 W7        30.03R
DETROIT LAKES  CLEAR     43  34  70 NW14      30.05S
MOORHEAD       CLEAR     46  36  66 NW9       30.09R
PARK RAPIDS    CLEAR     41  33  73 W7        30.01R
MAHNOMEN       FAIR      37  32  83 W9        30.03S
$$
MNZ006-009>011-018-025>026-251500-
   North Central Minnesota

CITY           SKY/WX    TMP DP  RH WIND       PRES   REMARKS
BAUDETTE       CLEAR     43  31  62 VRB7      29.92R
FLAG ISLAND    CLEAR     43  32  65 W22G28    29.89R
INTL FALLS     CLEAR     42  31  64 W9        29.88R
WASKISH        FAIR      45  36  70 W17G23    29.95R
BIG FORK       SUNNY     45  34  65 W7        29.93S
LONGVILLE      SUNNY     46  32  57 W10       29.97S
GRAND RAPIDS   SUNNY     45  30  57 W8        29.95R
CRANE LAKE     SUNNY     43  32  65 W3        29.88R
ORR            SUNNY     45  28  53 W13G18    29.87R
COOK           SUNNY     45  32  61 W10G16    29.89S
WALKER         FAIR      42  31  65 W12       29.99R
$$
MNZ012-019>021-037-251500-
   Northeast Minnesota

CITY           SKY/WX    TMP DP  RH WIND       PRES   REMARKS
DULUTH         SUNNY     47  31  53 NW16      29.90R
ELY            SUNNY     45  32  61 W14G22    29.84R
HIBBING        SUNNY     47  30  51 W9        29.91R
EVELETH        SUNNY     45  32  61 W12       29.91R
DULUTH HARBOR  SUNNY     52  36  54 W13       29.93R
TWO HARBORS    SUNNY     52  21  30 W10G23    29.84R
SILVER BAY     SUNNY     50  34  53 W8G20     29.81R
GRAND MARAIS     N/A     52  33  48 NW17G40   29.70R
G MARAIS ARPRT SUNNY     45  30  57 W20G29    29.74R
$$
MNZ029>031-032-039>041-046>048-054>057-064-251500-
   West Central Minnesota

CITY           SKY/WX    TMP DP  RH WIND       PRES   REMARKS
FERGUS FALLS   PTCLDY    37  28  70 CALM      30.10R
WHEATON        CLOUDY    46  36  66 W8        30.13R
MORRIS         CLOUDY    46  36  66 NW8       30.08R
ALEXANDRIA     SUNNY     45  34  65 NW8       30.08R
ELBOW LAKE     FAIR      42  34  73 NW5       30.09R
WADENA         CLEAR     43  34  70 W7        30.04R
GLENWOOD       MOSUNNY   45  36  70 W8        30.08R
APPLETON       MOCLDY    50  37  62 NW6       30.10R
BENSON         PTSUNNY   48  36  61 N5        30.09R
ORTONVILLE     MOCLDY    50  34  53 NW5       30.10R
MADISON        PTCLDY    48  37  66 W5        30.11R
WILLMAR        FAIR      50  36  57 NW7       30.10R
$$
MNZ033>034-036-042>043-049>051-058-059-251500-
   Central Minnesota

CITY           SKY/WX    TMP DP  RH WIND       PRES   REMARKS
ST CLOUD       SUNNY     51  34  52 NW13      30.03R
SAUK CENTRE    FAIR      43  34  70 W8        30.07R
PAYNESVILLE    MOSUNNY   43  33  69 W8        30.07R
AITKIN         SUNNY     48  34  57 W3        29.97S
PINE RIVER     SUNNY     45  34  65 W7        30.03S
BRAINERD       SUNNY     46  33  60 W8        30.02R
STAPLES        SUNNY     43  34  70 W10       30.03R
LONG PRAIRIE   FAIR      45  32  61 W10       30.06R
LITTLE FALLS   SUNNY     46  32  57 W8        30.03R
LITCHFIELD     PTSUNNY   52  34  50 NW9       30.07R
BUFFALO        MOSUNNY   50  35  56 W7        30.06R
MAPLE LAKE     MOSUNNY   50  38  62 W10G17    30.06R
$$
MNZ037-044-045-052-053-251500-
   East Central Minnesota

CITY           SKY/WX    TMP DP  RH WIND       PRES   REMARKS
PRINCETON      SUNNY     48  36  61 W9        30.03R
MORA           SUNNY     46  32  57 W8        30.02R
CAMBRIDGE      SUNNY     52  36  54 W7        30.00R
RUSH CITY      SUNNY     47  36  63 W6        30.01R
MOOSE LAKE     SUNNY     46  32  57 NW7G16    29.96R
HINCKLEY       FAIR      50  34  53 NW8       29.99R
CLOQUET        SUNNY     46  30  53 W12G17    29.93R
MCGREGOR       SUNNY     48  34  57 W10G17    29.98R
$$
MNZ071>073-080-081-089-090-097-098-251500-
   Southwest Minnesota

CITY           SKY/WX    TMP DP  RH WIND       PRES   REMARKS
MONTEVIDEO     MOSUNNY   54  39  58 N5        30.11R
GRANITE FALLS  MOSUNNY   47  39  74 CALM      30.11R
CANBY          MOSUNNY   49  37  62 W7        30.13R
MARSHALL       MOSUNNY   48  34  57 W9        30.11R
REDWOOD FALLS  SUNNY     51  38  60 NW7       30.09R
OLIVIA         MOSUNNY   50  37  62 NW5       30.08R
PIPESTONE      MOSUNNY   48  37  66 N3        30.12R
WINDOM         SUNNY     52  36  54 NW5       30.10R
WORTHINGTON    SUNNY     48  36  61 NW8       30.12R
JACKSON        SUNNY     50  36  57 NW6       30.10R
TRACY          MOSUNNY   53  35  50 NW5       30.11R
SLAYTON        MOSUNNY   48  35  61 NW7       30.12R
$$
MNZ065>067-074>077-082>085-091>093-251500-
   South Central Minnesota

CITY           SKY/WX    TMP DP  RH WIND       PRES   REMARKS
MANKATO        PTSUNNY   52  36  54 NW12      30.07R
NEW ULM        MOSUNNY   46  39  76 W7        30.08R
ST JAMES       SUNNY     52  37  58 W6        30.10R
FAIRMONT       SUNNY     54   9  16 NW9       30.09R
GLENCOE        CLOUDY    53  38  57 W8        30.07R
FARIBAULT      CLOUDY    54  39  58 W6        30.06R
OWATONNA       PTSUNNY   52  39  62 W7        30.06R
WASECA         PTSUNNY   45  36  70 W5        30.09R
ALBERT LEA     MOSUNNY   50  39  66 W5        30.06R
$$
MNZ078>079-086>088-094>096-251500-
   Southeast Minnesota

CITY           SKY/WX    TMP DP  RH WIND       PRES   REMARKS
ROCHESTER      MOSUNNY   49  41  74 W8        30.03R
RED WING       MOSUNNY   48  43  81 W8        30.01R
STANTON        PTSUNNY   53  40  61 W7        30.03R
DODGE CENTER   PTSUNNY   52  39  62 W10       30.04R
WINONA         SUNNY     54  39  58 W8        29.99S
AUSTIN         MOSUNNY   50  39  66 NW8       30.05R
PRESTON        SUNNY     50  40  70 NW10      30.02S
$$
ABBREVIATIONS USED IN REMARKS
   TC - TEMPERATURES IN CELSIUS
  WCI - WIND CHILL INDEX
   HX - HEAT INDEX
  VSB - VISIBILITY
$$



USA.gov is the U.S. government's official web portal to all federal, state and local government web resources and services.